User: anonymous   Login
Location: Lafig�re
(44.4503°N, 4.0357°E)
Time: 22:53:35
(UTC+00:00)
Language:

Okean 1 Rocket - Orbit

View from above orbital plane
View from above orbital plane
View from above satellite
View from above satellite

Ground track
Ground track

The orbit data is extracted from the following two-line orbital elements,

1 19275U 88056B   20336.78030725  .00000156  00000-0  16319-4 0  9993
2 19275  82.5175 228.3674 0020290   8.8189 351.3377 14.82767463729413
Epoch (UTC): 01 December 2020 18:43:38
Eccentricity: 0.0020290
inclination: 82.5175°
perigee height: 606 km
apogee height: 635 km
right ascension of ascending node: 228.3674°
argument of perigee: 8.8189°
revolutions per day: 14.82767463
mean anomaly at epoch: 351.3377°
orbit number at epoch: 72941

The dashed part of the orbit path shows where the satellite is in the earth's shadow,  

DLR